DateTimeUTC,F1_A11,F1_S11,BsB_S11,BsG_S11,BsR_S11,BbsB_S11,BbsG_S11,BbsR_S11,BaB_A11,BaG_A11,BaR_A11,Tu_S11,T_S11,Uu_S11,U_S11,P_S11,T1_A11
2021-10-13T12:00:00Z,00000200,21000000,,,,,,,0000.22,0000.78,0000.08,17.1,24.1,,00.0,0670.2,31.0
2021-10-13T12:01:00Z,00000200,21000000,,,,,,,0000.18,0000.59,0000.50,17.1,24.2,,00.0,0670.2,31.0
2021-10-13T12:02:00Z,00000200,21000000,,,,,,,0000.43,-000.03,0000.01,17.1,24.2,,00.0,0670.2,31.0
2021-10-13T12:03:00Z,00000200,61000000,,,,,,,0027.92,0025.76,0020.13,17.2,24.2,,00.0,0670.2,31.0
2021-10-13T12:04:00Z,00000200,41000000,0004.24,0003.34,0001.79,0001.91,0000.27,0000.55,0044.99,0040.98,0032.62,17.6,24.1,00.2,00.2,0671.1,31.0
2021-10-13T12:05:00Z,00000200,01000000,0002.74,0002.74,0001.11,0001.33,0000.77,0000.49,0031.34,0029.32,0023.29,17.6,24.1,00.2,00.1,0671.2,31.0
2021-10-13T12:06:00Z,00000200,01000000,0000.69,0000.81,0000.17,0000.25,0000.51,0000.09,0001.19,0001.05,0000.83,17.6,24.1,00.2,00.1,0671.1,31.0
2021-10-13T12:07:00Z,00000200,01000000,0001.77,0000.69,0000.32,0000.87,0000.22,0000.23,0000.54,0000.45,0000.30,17.5,24.0,00.3,00.2,0671.1,31.0
2021-10-13T12:08:00Z,00000200,01000000,0001.04,0000.64,0000.27,0000.34,0000.25,-000.05,0000.89,0000.49,0000.32,17.5,24.0,00.4,00.2,0671.1,30.9
2021-10-13T12:09:00Z,00000200,01000000,0001.32,0000.92,0000.42,0000.49,0000.24,-000.09,0001.02,0001.10,0000.72,17.4,24.0,00.4,00.3,0671.1,30.9
2021-10-13T12:10:00Z,00000200,01000000,0002.28,0000.98,0000.39,0000.26,0000.47,0000.09,0000.70,0000.77,0000.42,17.4,23.9,00.6,00.4,0671.0,30.9
2021-10-13T12:11:00Z,00000200,01000000,0001.32,0000.69,0000.15,0001.02,0000.14,0000.12,0000.55,0000.26,0000.59,17.4,23.9,00.6,00.4,0671.0,30.9
2021-10-13T12:12:00Z,00000200,01000000,0000.81,0000.82,0000.10,0000.47,0000.12,0000.22,0000.81,0000.76,0000.46,17.3,23.9,00.7,00.5,0671.0,30.9
2021-10-13T12:13:00Z,00000200,01000000,0001.68,0000.83,-000.00,0001.13,0000.24,0000.24,0000.37,0000.55,0000.44,17.3,23.9,00.7,00.4,0671.0,30.9
2021-10-13T12:14:00Z,00000200,01000000,0000.54,0000.56,0000.30,0000.49,0000.19,-000.06,0000.20,0000.21,0000.03,17.4,23.9,00.7,00.5,0671.0,30.9
2021-10-13T12:15:00Z,00000200,01000000,0000.93,0000.78,0000.39,0000.46,0000.17,-000.04,0000.17,0000.02,0000.28,17.5,24.0,00.7,00.5,0671.0,30.9
2021-10-13T12:16:00Z,00000200,01000000,0000.46,0000.92,0000.22,0000.81,0000.28,0000.06,0000.20,0000.13,0000.00,17.5,24.0,00.5,00.3,0671.0,31.0
2021-10-13T12:17:00Z,00000200,01000000,0000.92,0000.42,0000.30,0000.42,0000.03,-000.03,-000.23,0000.15,0000.06,17.6,24.0,00.5,00.3,0671.0,31.0
2021-10-13T12:18:00Z,00000200,01000000,0000.60,0000.63,0000.48,0000.36,0000.26,-000.05,0000.44,-000.06,-000.02,17.7,24.1,00.5,00.3,0671.0,31.0
2021-10-13T12:19:00Z,00000200,01000000,0000.85,0001.32,0000.13,0000.96,0000.18,-000.14,0000.03,0000.50,-000.04,17.7,24.1,00.4,00.3,0670.9,31.0
2021-10-13T12:20:00Z,00000200,01000000,0000.21,0000.61,0000.08,0000.83,0000.07,0000.07,0000.16,-000.07,0000.08,17.7,24.1,00.3,00.2,0671.0,30.9
2021-10-13T12:21:00Z,00000200,01000000,0000.72,0000.65,0000.48,0000.84,0000.15,0000.36,0000.24,0000.09,0000.55,17.6,24.0,00.3,00.2,0670.9,30.9
2021-10-13T12:22:00Z,00000200,01000000,0000.71,0000.86,0000.31,0000.25,0000.24,-000.00,-000.04,0000.26,-000.29,17.6,24.0,00.3,00.2,0670.9,31.0
2021-10-13T12:23:00Z,00000200,01000000,0000.62,0000.70,0000.16,0000.64,0000.24,0000.17,0000.26,-000.30,-000.14,17.5,24.0,00.4,00.2,0670.9,30.9
2021-10-13T12:24:00Z,00000200,01000000,0000.44,0000.58,0000.35,0000.42,0000.13,0000.05,-000.01,0000.45,0000.35,17.5,24.0,00.3,00.2,0670.9,30.9
2021-10-13T12:25:00Z,00000200,01000000,0000.68,0000.69,0000.14,0000.57,0000.18,0000.29,0000.11,-000.12,-000.37,17.4,23.9,00.3,00.2,0670.9,30.9
2021-10-13T12:26:00Z,00000200,01000000,0000.85,0000.73,0000.22,0000.73,0000.22,0000.42,-000.05,-000.22,0000.33,17.4,23.9,00.2,00.2,0670.9,30.9
2021-10-13T12:27:00Z,00000200,01000000,0000.53,0000.70,0000.12,0000.65,0000.58,0000.27,0000.12,-000.24,-000.23,17.4,23.9,00.2,00.1,0670.9,30.9
2021-10-13T12:28:00Z,00000200,01000000,0000.33,0000.43,0000.11,0000.25,0000.11,0000.13,-000.58,-000.06,-000.12,17.4,23.9,00.1,00.1,0670.9,30.9
2021-10-13T12:29:00Z,00000200,01000000,0000.20,0000.62,0000.06,0000.12,0000.31,-000.04,0000.40,-000.01,0000.05,17.5,23.9,00.1,00.1,0671.0,30.9
2021-10-13T12:30:00Z,00000200,01000000,0000.02,0000.61,0000.06,0000.39,0000.10,0000.15,-000.36,0000.50,0000.08,17.5,23.9,00.0,00.0,0671.0,31.0
2021-10-13T12:31:00Z,00000200,01000000,0001.10,0000.31,0000.15,0000.71,0000.17,0000.21,0000.10,-000.41,-000.25,17.6,24.0,00.0,00.0,0671.0,31.0
2021-10-13T12:32:00Z,00000200,01000000,0000.31,0000.43,-000.01,0000.75,-000.03,-000.14,-000.03,-000.03,0000.55,17.7,24.0,00.0,00.0,0671.0,31.0
2021-10-13T12:33:00Z,00000200,01000000,0000.62,0000.40,0000.31,0000.05,0000.29,0000.11,0000.29,0000.45,-000.27,17.7,24.0,00.0,00.0,0671.0,31.0
2021-10-13T12:34:00Z,00000200,01000000,0000.82,0000.63,0000.06,0000.74,0000.32,0000.10,0000.61,0000.51,0000.60,17.8,24.1,00.0,00.0,0671.0,31.0
2021-10-13T12:35:00Z,00000200,01000000,-000.26,0000.46,-000.08,0000.43,0000.16,0000.39,0000.53,0000.70,-000.18,17.8,24.1,00.1,00.1,0671.0,31.0
2021-10-13T12:36:00Z,00000200,01000000,0000.12,0000.57,-000.11,-000.44,0000.06,0000.17,0000.21,-000.38,0000.33,17.8,24.1,00.1,00.1,0671.0,31.0
2021-10-13T12:37:00Z,00000200,01000000,0000.02,0000.24,0000.15,0000.15,-000.00,0000.07,0000.44,0000.35,0000.08,17.8,24.1,00.1,00.1,0671.0,31.0
2021-10-13T12:38:00Z,00000200,01000000,-000.91,0000.14,0000.04,0000.61,0000.23,0000.02,0000.14,0000.32,0000.05,17.7,24.1,00.2,00.1,0671.0,30.9
2021-10-13T12:39:00Z,00000200,01000000,-000.58,0000.22,0000.12,0000.68,0000.25,0000.21,-000.08,-000.01,0000.39,17.7,24.0,00.2,00.1,0671.0,30.9
2021-10-13T12:40:00Z,00000200,01000000,-000.15,0000.55,-000.18,0000.40,0000.26,-000.11,0000.51,0000.41,0000.25,17.6,24.0,00.2,00.2,0671.0,30.9
2021-10-13T12:41:00Z,00000200,01000000,0000.33,0000.53,0000.05,0000.38,0000.22,-000.07,-000.20,-000.21,0000.02,17.6,24.0,00.3,00.2,0671.0,30.9
2021-10-13T12:42:00Z,00000200,01000000,0000.43,0000.06,-000.06,-000.05,0000.48,0000.02,0000.61,0000.40,0000.21,17.6,24.0,00.3,00.2,0671.0,30.9
2021-10-13T12:43:00Z,00000200,01000000,0000.61,0000.49,0000.26,0000.06,0000.45,-000.02,0000.30,0000.28,0000.25,17.6,24.0,00.4,00.2,0671.0,30.9
2021-10-13T12:44:00Z,00000200,01000000,0000.85,0000.20,0000.29,0000.57,0000.24,0000.36,-000.18,0000.12,-000.05,17.6,24.0,00.2,00.1,0670.9,31.0
2021-10-13T12:45:00Z,00000200,01000000,0000.06,0000.38,-000.21,0001.28,0000.50,0000.06,0000.25,0000.06,-000.32,17.7,24.0,00.3,00.2,0671.0,31.0
2021-10-13T12:46:00Z,00000200,01000000,0000.29,0000.41,0000.03,0000.27,0000.34,0000.03,-000.60,-000.37,0000.15,17.8,24.1,00.2,00.1,0671.0,31.0
2021-10-13T12:47:00Z,00000200,01000000,0000.49,0000.14,-000.14,0000.38,0000.23,-000.21,-000.49,-000.35,-000.30,17.8,24.1,00.1,00.0,0671.0,31.0
2021-10-13T12:48:00Z,00000200,01000000,0000.23,0000.50,-000.00,0000.81,0000.41,0000.08,-000.50,-000.58,-000.57,17.9,24.2,00.0,00.0,0671.0,31.0
2021-10-13T12:49:00Z,00000200,01000000,0000.31,0000.50,0000.00,-000.12,0000.17,0000.01,0000.02,-000.33,-000.01,17.9,24.2,00.0,00.0,0671.0,31.0
2021-10-13T12:50:00Z,00000200,01000000,-000.02,0000.66,0000.22,-000.09,0000.48,-000.17,-000.39,-000.08,-000.41,17.8,24.2,00.0,00.0,0671.0,31.0
2021-10-13T12:51:00Z,00000200,01000000,-000.07,0000.16,-000.04,0000.46,0000.34,0000.34,-000.49,-000.68,-000.33,17.8,24.1,,00.0,0671.0,31.0
2021-10-13T12:52:00Z,00000200,01000000,0000.14,0000.35,0000.02,0000.61,0000.25,-000.23,-000.90,-001.14,-000.70,17.7,24.1,,00.0,0670.9,31.0
2021-10-13T12:53:00Z,00000200,01000000,0000.59,0000.48,0000.22,0000.26,0000.37,-000.03,-000.46,-000.65,-000.25,17.7,24.1,,00.0,0670.9,30.9
2021-10-13T12:54:00Z,00000200,01000000,0000.22,0000.46,-000.12,0000.48,0000.15,-000.02,-000.53,-000.30,-000.64,17.6,24.1,,00.0,0670.9,30.9
2021-10-13T12:55:00Z,00000200,01000000,0000.49,0000.36,0000.08,0000.67,0000.13,0000.35,-000.17,-000.03,-000.15,17.6,24.1,,00.0,0670.9,31.0
2021-10-13T12:56:00Z,00000200,01000000,0000.69,0000.87,0000.25,0000.29,0000.38,0000.14,0000.11,-000.20,0000.67,17.5,24.0,,00.0,0670.9,30.9
2021-10-13T12:57:00Z,00000200,41000000,,,,,,,0001.67,0001.97,0000.68,17.5,24.0,,00.0,0671.0,30.9
2021-10-13T12:58:00Z,00000200,61000000,,,,,,,-000.80,-000.48,-000.20,17.2,24.1,,00.0,0670.0,30.9
2021-10-13T12:59:00Z,00000200,21000000,,,,,,,-000.33,-000.52,-000.16,17.2,24.2,,00.0,0669.9,31.0
